| time (UTC) | temp F | wind direction | speed MPH | gust MPH | rain 1hr in | rain 24hr in | rain mn in | humidity % | barometer mb |
| 20260507171516 | 54 | 0.0 | 2.0 | 0.00 | 0.10 | 0.10 | |||
| 20260507170516 | 55 | 0.0 | 1.0 | 0.00 | 0.10 | 0.10 | |||
| 20260507165516 | 56 | 45 | 1.0 | 2.0 | 0.00 | 0.10 | 0.10 | ||
| 20260507164516 | 56 | 270 | 1.0 | 4.0 | 0.00 | 0.10 | 0.10 | ||
| 20260507163516 | 56 | 270 | 1.0 | 3.0 | 0.00 | 0.10 | 0.10 | ||
| 20260507162536 | 57 | 0.0 | 4.0 | 0.00 | 0.10 | 0.10 | |||
| 20260507161516 | 57 | 0.0 | 1.0 | 0.00 | 0.10 | 0.10 | |||
| 20260507160516 | 58 | 0.0 | 1.0 | 0.00 | 0.10 | 0.10 | |||
| 20260507155516 | 58 | 0.0 | 2.0 | 0.00 | 0.10 | 0.10 | |||
| 20260507154516 | 59 | 270 | 2.0 | 7.0 | 0.00 | 0.10 | 0.10 | ||
| 20260507153516 | 59 | 135 | 2.0 | 6.0 | 0.00 | 0.10 | 0.10 | ||
| 20260507152516 | 60 | 135 | 2.0 | 6.0 | 0.00 | 0.10 | 0.10 | ||
| 20260507151516 | 61 | 135 | 1.0 | 5.0 | 0.00 | 0.10 | 0.10 | ||
| 20260507150516 | 62 | 0.0 | 1.0 | 0.00 | 0.10 | 0.10 | |||
| 20260507145516 | 62 | 68 | 1.0 | 2.0 | 0.00 | 0.10 | 0.10 | ||
| 20260507144516 | 62 | 113 | 1.0 | 3.0 | 0.00 | 0.10 | 0.10 | ||
| 20260507143516 | 62 | 90 | 1.0 | 4.0 | 0.00 | 0.10 | 0.10 | ||
| 20260507142516 | 61 | 158 | 2.0 | 5.0 | 0.00 | 0.10 | 0.10 | ||
| 20260507141516 | 62 | 90 | 2.0 | 5.0 | 0.00 | 0.10 | 0.10 | ||
| 20260507140516 | 62 | 203 | 3.0 | 8.0 | 0.00 | 0.10 | 0.10 | ||
| 20260507135516 | 61 | 135 | 3.0 | 7.0 | 0.00 | 0.10 | 0.10 | ||
| 20260507134516 | 61 | 135 | 2.0 | 6.0 | 0.00 | 0.10 | 0.10 | ||
| 20260507133536 | 61 | 180 | 3.0 | 8.0 | 0.00 | 0.10 | 0.10 | ||
| 20260507132526 | 61 | 225 | 2.0 | 4.0 | 0.00 | 0.10 | 0.10 | ||
| 20260507131516 | 62 | 158 | 3.0 | 8.0 | 0.00 | 0.10 | 0.10 | ||
| 20260507130516 | 61 | 23 | 2.0 | 5.0 | 0.00 | 0.10 | 0.10 | ||
| 20260507125516 | 62 | 135 | 3.0 | 11.0 | 0.00 | 0.10 | 0.10 | ||
| 20260507124516 | 61 | 158 | 2.0 | 6.0 | 0.00 | 0.10 | 0.10 | ||
| 20260507123516 | 61 | 135 | 3.0 | 6.0 | 0.00 | 0.10 | 0.10 | ||
| 20260507122516 | 60 | 0.0 | 3.0 | 0.00 | 0.10 | 0.10 | |||
| 20260507121516 | 59 | 68 | 2.0 | 4.0 | 0.00 | 0.10 | 0.10 | ||
| 20260507120536 | 58 | 68 | 3.0 | 7.0 | 0.00 | 0.10 | 0.10 | ||
| 20260507115516 | 57 | 68 | 4.0 | 9.0 | 0.00 | 0.10 | 0.10 | ||
| 20260507114516 | 57 | 45 | 3.0 | 6.0 | 0.00 | 0.10 | 0.10 | ||
| 20260507113536 | 58 | 68 | 3.0 | 11.0 | 0.00 | 0.10 | 0.10 | ||
| 20260507112516 | 58 | 68 | 3.0 | 9.0 | 0.00 | 0.10 | 0.10 | ||
| 20260507111516 | 56 | 68 | 4.0 | 10.0 | 0.00 | 0.10 | 0.10 | ||
| 20260507110516 | 56 | 68 | 5.0 | 10.0 | 0.00 | 0.10 | 0.10 | ||
| 20260507105516 | 56 | 68 | 6.0 | 12.0 | 0.00 | 0.10 | 0.10 | ||
| 20260507104516 | 56 | 68 | 7.0 | 14.0 | 0.00 | 0.10 | 0.10 | ||
| 20260507103516 | 55 | 68 | 7.0 | 15.0 | 0.00 | 0.10 | 0.10 | ||
| 20260507102516 | 53 | 68 | 5.0 | 13.0 | 0.00 | 0.10 | 0.10 | ||
| 20260507101517 | 53 | 68 | 6.0 | 13.0 | 0.00 | 0.10 | 0.10 | ||
| 20260507100516 | 52 | 68 | 4.0 | 10.0 | 0.00 | 0.10 | 0.10 | ||
| 20260507095516 | 51 | 68 | 5.0 | 12.0 | 0.00 | 0.10 | 0.10 | ||
| 20260507094516 | 50 | 68 | 4.0 | 10.0 | 0.00 | 0.10 | 0.10 | ||
| 20260507093516 | 50 | 68 | 4.0 | 8.0 | 0.00 | 0.10 | 0.10 | ||
| 20260507092516 | 50 | 45 | 4.0 | 9.0 | 0.00 | 0.10 | 0.10 | ||
| 20260507091536 | 50 | 45 | 4.0 | 15.0 | 0.00 | 0.10 | 0.10 | ||
| 20260507090516 | 50 | 45 | 4.0 | 15.0 | 0.00 | 0.10 | 0.10 | ||
| 20260507085536 | 49 | 45 | 4.0 | 9.0 | 0.00 | 0.10 | 0.10 | ||
| 20260507084516 | 49 | 45 | 4.0 | 9.0 | 0.01 | 0.10 | 0.10 | ||
| 20260507083536 | 49 | 68 | 6.0 | 18.0 | 0.01 | 0.10 | 0.10 | ||
| 20260507082516 | 50 | 45 | 4.0 | 13.0 | 0.01 | 0.10 | 0.10 | ||
| 20260507081516 | 50 | 45 | 3.0 | 8.0 | 0.01 | 0.10 | 0.10 | ||
| 20260507080516 | 50 | 68 | 2.0 | 6.0 | 0.01 | 0.10 | 0.10 | ||
| 20260507075516 | 50 | 45 | 3.0 | 11.0 | 0.01 | 0.10 | 0.10 | ||
| 20260507074516 | 50 | 68 | 4.0 | 11.0 | 0.01 | 0.09 | 0.09 | ||
| 20260507073536 | 50 | 68 | 4.0 | 7.0 | 0.01 | 0.09 | 0.09 | ||
| 20260507072516 | 49 | 68 | 4.0 | 11.0 | 0.02 | 0.09 | 0.09 | ||
| 20260507071516 | 49 | 68 | 4.0 | 8.0 | 0.02 | 0.09 | 0.09 | ||
| 20260507070536 | 47 | 68 | 2.0 | 6.0 | 0.02 | 0.09 | 0.09 | ||
| 20260507065516 | 48 | 90 | 1.0 | 4.0 | 0.02 | 0.09 | 0.09 | ||
| 20260507064516 | 48 | 158 | 1.0 | 3.0 | 0.02 | 0.09 | 0.09 | ||
| 20260507063516 | 48 | 68 | 1.0 | 3.0 | 0.02 | 0.09 | 0.09 | ||
| 20260507062536 | 48 | 270 | 1.0 | 2.0 | 0.01 | 0.08 | 0.08 | ||
| 20260507061516 | 48 | 270 | 1.0 | 2.0 | 0.01 | 0.08 | 0.08 | ||
| 20260507060516 | 48 | 45 | 1.0 | 4.0 | 0.01 | 0.08 | 0.08 | ||
| 20260507055517 | 48 | 68 | 1.0 | 3.0 | 0.01 | 0.08 | 0.08 | ||
| 20260507054516 | 48 | 68 | 2.0 | 5.0 | 0.00 | 0.07 | 0.07 | ||
| 20260507053516 | 48 | 45 | 1.0 | 4.0 | 0.00 | 0.07 | 0.07 | ||
| 20260507052516 | 48 | 270 | 1.0 | 2.0 | 0.00 | 0.07 | 0.07 | ||
| 20260507051517 | 48 | 45 | 2.0 | 5.0 | 0.01 | 0.07 | 0.07 | ||
| 20260507050536 | 47 | 68 | 3.0 | 7.0 | 0.02 | 0.07 | 0.07 | ||
| 20260507045516 | 47 | 68 | 3.0 | 7.0 | 0.02 | 0.07 | 0.07 | ||
| 20260507044516 | 46 | 45 | 4.0 | 8.0 | 0.02 | 0.07 | 0.07 | ||
| 20260507043516 | 46 | 45 | 2.0 | 10.0 | 0.02 | 0.07 | 0.07 | ||
| 20260507042516 | 46 | 45 | 3.0 | 8.0 | 0.03 | 0.07 | 0.07 | ||
| 20260507041516 | 46 | 0.0 | 1.0 | 0.03 | 0.06 | 0.06 | |||
| 20260507040516 | 47 | 45 | 2.0 | 8.0 | 0.03 | 0.06 | 0.06 | ||
| 20260507035536 | 47 | 45 | 2.0 | 8.0 | 0.04 | 0.05 | 0.05 | ||
| 20260507034536 | 47 | 45 | 2.0 | 7.0 | 0.04 | 0.05 | 0.05 | ||
| 20260507033516 | 47 | 45 | 2.0 | 8.0 | 0.04 | 0.05 | 0.05 | ||
| 20260507032516 | 48 | 45 | 1.0 | 7.0 | 0.03 | 0.04 | 0.04 | ||
| 20260507031516 | 47 | 68 | 3.0 | 7.0 | 0.02 | 0.03 | 0.03 | ||
| 20260507030516 | 46 | 0.0 | 2.0 | 0.02 | 0.02 | 0.02 | |||
| 20260507025516 | 47 | 0.0 | 2.0 | 0.00 | 0.01 | 0.01 | |||
| 20260507024516 | 47 | 0.0 | 1.0 | 0.00 | 0.01 | 0.01 | |||
| 20260507023516 | 47 | 0.0 | 1.0 | 0.00 | 0.01 | 0.01 | |||
| 20260507022516 | 47 | 0.0 | 1.0 | 0.00 | 0.01 | 0.01 | |||
| 20260507021516 | 48 | 68 | 1.0 | 3.0 | 0.00 | 0.01 | 0.01 | ||
| 20260507020536 | 48 | 0.0 | 2.0 | 0.00 | 0.01 | 0.01 | |||
| 20260507015516 | 49 | 270 | 1.0 | 3.0 | 0.00 | 0.01 | 0.01 | ||
| 20260507014516 | 48 | 0.0 | 1.0 | 0.00 | 0.01 | 0.01 | |||
| 20260507013516 | 48 | 0.0 | 2.0 | 0.01 | 0.01 | 0.01 | |||
| 20260507012516 | 48 | 0.0 | 0.0 | 0.01 | 0.01 | 0.01 | |||
| 20260507011536 | 48 | 0.0 | 1.0 | 0.01 | 0.01 | 0.01 | |||
| 20260507010516 | 48 | 0.0 | 1.0 | 0.01 | 0.01 | 0.01 | |||
| 20260507005516 | 49 | 0.0 | 1.0 | 0.01 | 0.01 | 0.01 | |||
| 20260507004536 | 49 | 0.0 | 2.0 | 0.01 | 0.01 | 0.01 | |||
| 20260507003516 | 50 | 0.0 | 1.0 | 0.00 | 0.00 | 0.00 | |||
| 20260507002536 | 51 | 0.0 | 1.0 | 0.00 | 0.00 | 0.00 | |||
| 20260507001516 | 53 | 270 | 1.0 | 3.0 | 0.00 | 0.00 | 0.00 | ||
| 20260507000536 | 53 | 90 | 1.0 | 2.0 | 0.00 | 0.00 | 0.00 | ||
| 20260506235516 | 53 | 248 | 1.0 | 3.0 | 0.00 | 0.00 | 0.00 | ||
| 20260506234516 | 52 | 0.0 | 1.0 | 0.00 | 0.00 | 0.00 | |||
| 20260506233516 | 52 | 270 | 1.0 | 3.0 | 0.00 | 0.00 | 0.00 | ||
| 20260506232536 | 52 | 0.0 | 2.0 | 0.00 | 0.00 | 0.00 | |||
| 20260506231516 | 51 | 0.0 | 2.0 | 0.00 | 0.00 | 0.00 | |||
| 20260506230516 | 51 | 0.0 | 1.0 | 0.00 | 0.00 | 0.00 | |||
| 20260506225516 | 51 | 0.0 | 2.0 | 0.00 | 0.00 | 0.00 | |||
| 20260506224516 | 50 | 0.0 | 1.0 | 0.00 | 0.00 | 0.00 | |||
| 20260506223536 | 51 | 0.0 | 2.0 | 0.00 | 0.00 | 0.00 | |||
| 20260506222516 | 51 | 0.0 | 1.0 | 0.00 | 0.00 | 0.00 | |||
| 20260506221516 | 52 | 0.0 | 2.0 | 0.00 | 0.00 | 0.00 | |||
| 20260506220516 | 53 | 0.0 | 0.0 | 0.00 | 0.00 | 0.00 | |||
| 20260506215516 | 53 | 0.0 | 1.0 | 0.00 | 0.00 | 0.00 | |||
| 20260506214536 | 54 | 0.0 | 2.0 | 0.00 | 0.00 | 0.00 | |||
| 20260506213516 | 54 | 68 | 1.0 | 5.0 | 0.00 | 0.00 | 0.00 | ||
| 20260506212516 | 54 | 45 | 3.0 | 7.0 | 0.00 | 0.00 | 0.00 | ||
| 20260506211516 | 54 | 45 | 4.0 | 8.0 | 0.00 | 0.00 | 0.00 | ||
| 20260506210516 | 54 | 45 | 3.0 | 6.0 | 0.00 | 0.00 | 0.00 | ||
| 20260506205516 | 54 | 45 | 2.0 | 7.0 | 0.00 | 0.00 | 0.00 | ||
| 20260506204516 | 54 | 45 | 3.0 | 7.0 | 0.00 | 0.00 | 0.00 | ||
| 20260506203516 | 54 | 68 | 4.0 | 10.0 | 0.00 | 0.00 | 0.00 | ||
| 20260506202516 | 54 | 68 | 4.0 | 10.0 | 0.00 | 0.00 | 0.00 | ||
| 20260506201536 | 54 | 90 | 2.0 | 6.0 | 0.00 | 0.00 | 0.00 | ||
| 20260506200537 | 54 | 68 | 2.0 | 5.0 | 0.00 | 0.00 | 0.00 | ||
| 20260506195516 | 53 | 45 | 1.0 | 6.0 | 0.00 | 0.00 | 0.00 | ||
| 20260506194516 | 53 | 0.0 | 1.0 | 0.00 | 0.00 | 0.00 | |||
| 20260506193516 | 52 | 90 | 1.0 | 3.0 | 0.00 | 0.00 | 0.00 | ||
| 20260506192516 | 52 | 0.0 | 1.0 | 0.00 | 0.00 | 0.00 | |||
| 20260506191516 | 52 | 0.0 | 1.0 | 0.00 | 0.00 | 0.00 | |||
| 20260506190536 | 52 | 113 | 1.0 | 3.0 | 0.00 | 0.00 | 0.00 | ||
| 20260506185516 | 52 | 0.0 | 0.0 | 0.00 | 0.00 | 0.00 | |||
| 20260506184516 | 52 | 0.0 | 1.0 | 0.00 | 0.00 | 0.00 | |||
| 20260506183516 | 53 | 0.0 | 1.0 | 0.00 | 0.00 | 0.00 | |||
| 20260506182516 | 53 | 0.0 | 1.0 | 0.00 | 0.00 | 0.00 | |||
| 20260506181536 | 53 | 0.0 | 1.0 | 0.00 | 0.00 | 0.00 | |||
| 20260506180516 | 54 | 0.0 | 1.0 | 0.00 | 0.00 | 0.00 | |||
| 20260506175516 | 54 | 0.0 | 0.0 | 0.00 | 0.00 | 0.00 | |||
| 20260506174516 | 54 | 0.0 | 2.0 | 0.00 | 0.00 | 0.00 | |||
| 20260506173516 | 55 | 0.0 | 2.0 | 0.00 | 0.00 | 0.00 | |||
| 20260506172516 | 55 | 0.0 | 1.0 | 0.00 | 0.00 | 0.00 |